EUTELSAT 5 WEST B

Last updated on Thu Feb 05 2026 00:02:52 GMT+0000 (Coordinated Universal Time)

1 44624U 19067A 26035.34251218 -.00000048 00000+0 00000+0 0 9996 2 44624 0.0874 310.3765 0003195 8.1831 294.2091 1.00272386 23107
UTC large
Height (km)
Speed (km/s)
/
Latitude / Longitude
Inclination (degrees)
Orbital Period (minutes)
Azimuth
Elevation
Range (km)
Doppler Factor

Next 0 passes for location: London (51.5072 / 0.1276)

Sorry there are no passes over London.